Theta_e
317 317 316 316 317 317 318 318 318 318 318 317 317 317 317 317 318 318 318 318 319 319 319 319 320 323 317 312 311 320 340 334 317 310 309 308 303 301 298 302 302 299 303 305 306 305 302
317 316 315 315 316 317 317 317 317 317 317 317 317 317 317 317 317 317 317 317 317 317 318 319 322 323 317 308 316 320 319 316 315 310 311 308 304 307 302 303 300 304 303 304 305 304 303
318 317 316 317 317 317 317 317 317 317 317 316 316 316 316 316 316 317 317 316 316 317 318 321 325 320 315 312 317 318 317 314 315 316 312 313 311 306 305 302 306 305 299 302 303 305 303
319 318 318 317 317 317 317 317 317 317 317 316 316 315 315 316 316 317 317 316 316 317 319 324 326 316 312 318 314 313 315 315 317 316 315 314 311 306 303 306 305 301 297 292 302 306 307
320 319 318 318 317 317 317 317 317 317 316 316 316 315 314 315 316 316 315 314 317 319 322 326 318 314 312 318 313 318 314 315 316 315 313 318 306 303 305 299 297 297 294 296 301 305 305
321 320 319 319 318 317 317 317 317 316 316 316 315 314 314 314 315 315 314 314 319 320 320 322 321 312 317 314 318 318 316 317 313 311 310 308 304 299 299 296 291 295 296 297 300 302 304
321 321 320 320 319 318 318 318 317 317 316 316 315 314 313 314 314 313 310 311 308 310 310 310 311 315 316 318 319 315 316 314 312 308 301 306 299 296 299 301 302 301 300 299 304 305 304
321 321 321 320 320 319 318 317 317 317 316 315 315 314 314 313 313 313 311 308 307 308 301 312 313 313 317 317 313 315 315 307 307 302 306 302 298 303 306 307 305 304 301 299 302 307 309
321 321 320 320 320 319 318 317 317 316 316 314 313 313 313 313 312 314 312 310 313 314 302 312 310 309 311 313 311 312 312 309 306 303 302 299 302 310 307 305 304 303 300 299 299 303 308
321 320 320 319 319 318 318 317 317 316 315 314 313 313 313 312 312 312 311 313 312 313 299 307 305 309 313 311 309 316 316 310 307 302 304 302 306 307 305 306 304 298 304 304 303 299 293
320 320 320 319 318 317 317 317 316 316 314 313 313 313 312 312 308 309 314 314 312 312 295 306 306 312 311 307 310 311 314 311 305 306 302 302 304 305 304 304 306 301 307 303 304 300 298
320 320 319 318 318 318 317 316 316 315 314 313 313 313 312 311 309 313 316 313 311 300 296 306 309 306 304 308 310 310 311 311 312 305 305 303 307 305 305 308 307 308 304 302 301 299 294
319 319 319 318 318 317 317 316 315 315 314 313 312 312 309 310 306 313 314 309 298 295 309 304 303 305 304 305 307 307 305 303 300 296 299 304 303 307 310 304 307 304 298 292 292 293 294
318 318 318 317 317 317 316 316 315 314 313 312 310 309 310 312 314 314 310 303 293 306 306 310 307 305 303 306 305 306 305 302 307 305 300 300 296 305 310 303 299 302 300 293 286 290 293
318 317 317 317 317 317 316 315 314 313 312 311 308 312 312 317 315 314 305 297 300 305 309 309 306 302 302 307 305 304 306 305 306 305 299 299 302 309 310 308 304 303 298 301 295 296 293
318 317 317 317 317 317 316 315 314 313 312 310 305 307 310 318 318 312 302 300 306 311 310 310 302 305 300 302 302 302 305 309 308 309 307 305 299 308 310 308 306 304 304 297 296 288 287
317 317 317 316 316 316 316 315 314 313 312 310 306 307 316 318 316 307 298 302 307 311 312 309 307 305 305 303 303 304 305 307 309 308 310 306 303 304 307 303 300 300 299 300 298 297 289
317 317 316 316 316 315 315 315 314 313 311 306 307 303 318 316 302 304 300 307 305 309 316 313 311 309 306 307 306 305 304 307 311 310 306 306 300 297 301 306 309 306 301 299 291 291 294
317 316 316 316 315 315 314 314 313 312 310 308 307 307 317 315 298 300 306 308 309 309 311 312 308 309 310 307 303 308 307 310 310 306 301 303 299 293 296 300 305 302 303 301 300 297 293
316 316 316 316 315 314 314 313 312 311 310 306 305 303 309 309 306 303 305 306 307 311 310 312 310 309 306 303 304 303 305 309 309 307 317 312 300 297 292 297 301 299 302 301 297 292 293
315 316 316 316 315 314 313 313 312 310 309 306 306 306 313 300 302 303 305 308 304 306 309 311 307 308 306 300 302 302 306 306 309 311 309 306 299 300 302 304 304 302 302 301 298 297 294
310 316 316 316 315 314 313 313 312 310 308 305 303 306 310 309 311 306 303 304 306 307 307 309 307 308 307 305 307 305 308 308 306 309 305 307 299 302 300 304 303 301 304 304 303 302 301
311 314 316 315 314 314 313 313 312 309 308 306 311 314 310 307 306 305 303 306 308 309 309 312 308 308 308 308 310 308 309 308 304 301 303 302 300 298 294 303 302 297 301 303 302 303 301
312 314 315 314 314 313 313 312 312 310 308 308 313 312 308 302 306 306 308 308 307 309 307 313 314 310 312 315 311 308 306 306 306 307 306 301 300 300 295 298 290 299 306 306 304 305 305
310 311 314 314 314 313 313 313 312 311 310 307 310 309 309 305 309 310 308 308 308 311 312 312 315 316 316 310 303 301 301 302 304 308 306 305 301 297 292 292 298 302 304 302 299 301 305
310 309 314 314 314 313 313 313 312 311 310 308 308 312 312 306 306 312 309 310 304 306 309 312 315 316 313 308 303 295 296 303 300 302 306 307 304 298 296 292 291 300 307 310 306 295 304
310 309 310 314 314 314 314 313 313 312 311 308 309 316 310 307 312 312 308 308 313 308 308 310 309 307 311 303 300 297 299 304 296 298 299 299 300 297 295 294 299 306 309 310 295 294 302
309 309 309 313 313 314 314 314 313 312 312 309 309 318 312 310 311 314 313 309 312 312 307 310 306 307 304 299 301 301 299 302 299 302 299 298 295 296 298 293 291 309 307 299 301 300 301
307 309 309 309 313 313 314 314 313 312 311 310 307 319 318 312 311 316 316 316 316 316 313 315 312 311 313 308 306 304 301 302 299 296 305 298 303 299 298 296 306 307 303 303 303 301 302
Wind_Speed
2 1 2 4 6 7 7 8 9 10 9 12 14 18 20 20 20 20 20 21 21 21 20 19 13 11 5 2 8 6 7 7 4 2 7 9 9 6 6 7 6 4 9 7 9 9 6
4 2 0 2 4 6 8 9 9 10 12 14 16 18 20 21 21 21 21 21 20 20 18 16 10 6 3 4 7 11 9 8 8 8 9 10 6 9 6 8 5 7 7 8 10 11 5
5 4 2 2 3 4 6 8 10 13 13 14 17 18 20 21 21 22 22 22 21 20 17 12 7 5 5 12 5 10 11 10 7 8 6 8 7 7 9 10 7 8 7 9 10 9 5
6 5 4 2 4 5 7 9 12 12 14 16 17 19 21 22 23 24 24 24 23 20 16 8 3 4 7 4 3 4 8 9 8 7 7 8 6 7 5 9 11 9 5 5 10 6 5
7 6 4 3 4 5 7 8 9 13 15 16 17 19 22 23 25 25 25 28 25 18 11 5 1 3 8 1 4 9 6 7 8 7 6 8 2 6 8 6 8 5 10 10 4 5 3
8 7 6 5 5 7 6 7 10 10 13 16 17 19 22 24 26 24 28 27 11 7 6 6 8 5 8 5 3 4 5 5 4 7 5 6 3 3 5 3 5 8 6 6 8 3 8
8 7 6 6 6 6 7 8 9 11 13 16 18 20 23 25 27 23 17 7 6 4 2 7 4 6 5 5 3 5 3 6 7 5 7 8 2 5 2 4 6 7 6 6 6 5 13
10 8 7 7 7 6 7 8 9 10 12 15 18 21 24 26 27 28 5 5 2 7 9 11 17 12 4 3 4 4 3 4 5 7 8 5 5 2 5 5 6 8 6 7 6 6 13
11 10 9 7 7 7 6 8 9 9 11 14 16 19 23 27 31 10 7 7 7 9 3 9 8 9 6 5 7 7 6 5 7 9 11 2 4 2 5 8 6 8 5 5 4 8 8
12 11 10 9 8 8 8 7 9 10 11 13 16 19 22 29 5 8 4 9 6 5 2 4 3 4 6 6 5 1 0 3 5 6 8 3 4 4 8 5 8 4 6 7 8 4 6
14 13 11 10 9 9 8 8 10 10 11 14 15 17 19 10 6 6 7 9 8 4 2 9 7 2 7 5 6 3 4 5 9 11 3 8 3 3 6 5 5 6 7 5 9 8 7
16 14 13 12 10 9 8 10 10 9 11 13 16 15 16 3 4 9 15 10 3 2 3 4 6 6 6 9 3 4 4 5 5 6 7 8 4 1 3 8 8 9 5 8 4 3 4
16 15 13 12 11 10 9 8 10 10 12 14 18 19 9 7 5 10 12 5 2 2 7 5 4 9 9 7 4 6 7 6 3 1 5 9 7 5 5 4 10 8 7 6 8 8 4
17 16 14 13 12 11 9 9 8 10 12 15 20 24 7 8 8 8 5 2 1 9 5 7 7 11 9 8 6 10 4 2 11 9 5 7 4 2 6 4 4 6 7 5 2 3 6
18 16 15 14 12 11 10 9 8 9 12 14 23 3 5 6 12 6 2 1 4 7 5 1 4 5 5 3 4 3 10 8 5 8 5 7 6 2 5 0 3 7 7 3 3 5 5
18 17 16 14 12 11 10 9 8 8 10 10 6 5 5 4 6 2 1 5 3 6 9 6 4 3 7 7 4 4 6 7 6 9 7 6 4 3 3 1 4 5 2 9 6 5 6
19 18 16 15 13 12 11 9 7 7 9 8 3 3 3 7 5 1 3 6 7 7 8 7 7 6 7 8 5 3 7 8 9 9 8 7 5 10 6 6 6 7 6 6 4 6 2
20 18 17 17 14 12 11 10 8 6 7 2 4 3 3 3 1 4 3 5 5 5 1 3 4 5 6 9 10 8 8 5 7 10 4 5 1 4 8 4 11 7 6 7 6 4 1
20 19 18 17 15 14 12 11 9 6 0 4 4 4 0 4 3 3 7 5 4 5 2 2 4 7 8 7 6 9 6 6 13 7 3 6 4 5 11 6 11 6 6 5 4 4 2
17 20 19 18 17 15 14 12 10 8 4 2 3 3 0 1 3 3 4 4 2 5 6 5 6 5 6 6 5 3 8 5 10 5 1 4 3 1 4 7 4 6 9 6 2 3 2
10 21 20 21 20 17 15 13 12 9 6 2 3 5 1 4 4 6 5 5 5 2 5 4 5 6 1 2 0 3 11 7 7 6 1 5 2 7 9 10 8 9 7 5 4 5 6
4 21 21 20 19 17 16 13 13 11 7 2 2 3 6 5 4 6 3 4 5 6 3 0 2 7 8 9 7 8 7 7 4 6 4 2 3 6 6 11 6 9 14 13 13 12 9
10 15 22 21 20 18 17 16 15 14 9 3 4 5 2 6 2 2 4 4 7 1 3 5 6 4 14 8 8 6 6 5 4 4 5 5 3 4 4 9 8 7 8 8 10 13 7
11 12 23 22 21 19 18 17 16 15 14 3 3 4 2 5 3 4 6 8 10 7 6 13 15 8 4 4 4 5 3 3 3 7 4 2 4 1 5 7 5 2 11 12 17 15 15
10 5 21 22 21 20 19 18 17 14 9 3 4 4 3 5 9 7 8 7 4 9 13 15 8 3 7 4 3 0 2 1 4 7 6 5 3 3 2 3 7 6 9 7 5 10 12
13 9 17 22 21 20 19 18 16 13 11 2 5 6 3 3 7 11 7 2 1 6 7 7 5 5 6 3 1 2 4 7 5 4 5 6 3 3 3 2 2 2 9 11 7 4 7
15 11 8 21 22 21 20 19 17 14 12 3 5 6 2 3 6 10 6 5 8 2 5 6 3 3 6 3 2 4 0 2 2 5 4 2 3 5 4 3 3 4 6 8 2 4 4
15 13 11 18 22 21 20 19 18 15 13 5 6 6 1 3 5 8 8 7 5 5 3 5 5 3 2 0 2 3 3 2 2 4 4 3 2 3 5 6 1 6 6 6 3 3 5
15 15 13 6 21 21 21 19 18 16 14 8 4 3 2 3 1 2 5 7 6 5 2 4 2 4 1 2 5 4 5 4 3 1 4 3 5 4 4 3 3 7 9 6 6 3 5
Wind_Direction
221 134 53 25 18 5 6 7 358 340 330 353 335 342 337 331 327 325 318 313 319 318 313 310 316 318 297 248 251 160 182 165 189 232 237 250 283 292 311 311 345 184 258 310 332 313 241
218 226 64 21 8 3 358 355 340 338 346 349 347 341 335 329 323 321 316 316 318 310 308 305 312 321 250 269 141 157 195 168 227 203 261 254 277 314 291 322 319 271 301 304 290 282 273
220 235 255 339 340 352 346 350 342 345 344 345 348 335 329 320 324 320 317 318 312 303 305 296 310 279 271 244 142 175 189 226 236 236 304 336 356 3 323 316 281 302 313 297 276 248 244
234 231 239 272 313 326 346 347 343 339 343 350 336 333 326 325 324 320 319 312 305 296 288 274 302 282 254 225 2 229 224 247 227 252 274 292 354 326 275 277 309 301 291 284 268 199 213
244 251 253 273 296 320 336 335 334 340 345 337 329 330 324 326 323 320 315 311 299 280 243 230 251 215 276 301 223 224 246 263 209 223 248 263 329 236 307 289 318 301 255 230 233 112 47
244 251 266 279 293 311 322 325 329 338 334 329 331 327 324 325 319 321 318 299 285 308 208 213 258 305 281 238 111 345 282 305 283 275 259 230 249 242 310 79 261 318 350 9 121 134 66
231 245 252 267 280 299 313 323 323 328 333 330 329 330 326 323 317 322 337 344 1 21 268 241 277 237 312 92 161 232 185 229 254 257 259 238 174 261 237 357 322 307 311 359 327 98 73
219 232 244 256 272 280 301 313 315 324 330 327 328 331 324 322 319 313 264 22 360 212 311 270 260 262 302 349 268 213 143 249 225 259 245 302 235 18 328 281 282 296 315 11 337 20 88
214 217 232 242 261 282 292 303 313 320 329 322 326 324 328 325 313 299 329 0 339 36 266 288 214 225 188 189 266 170 165 258 272 287 288 220 154 170 274 292 272 328 49 28 294 314 97
212 211 218 232 244 266 281 299 307 319 321 319 326 328 329 328 326 338 343 336 6 17 328 207 200 247 155 211 266 54 209 297 299 282 330 132 120 335 297 349 46 5 25 347 322 337 268
214 211 210 220 234 248 275 289 300 312 316 323 321 325 329 321 298 305 319 326 341 50 34 156 164 116 175 213 145 152 245 303 264 288 51 280 81 312 348 15 11 267 325 298 279 286 48
210 213 207 214 230 236 254 281 292 310 311 316 311 318 337 12 258 256 301 318 339 33 251 160 126 183 168 227 215 132 223 226 268 301 286 249 109 310 323 299 271 262 299 291 294 28 68
205 210 207 209 219 234 237 260 286 304 310 312 310 306 312 303 251 327 305 319 58 183 166 159 168 166 200 192 146 188 204 217 231 260 315 274 198 167 227 319 3 22 34 346 14 27 297
202 203 209 209 213 225 242 255 272 290 306 316 313 310 259 218 237 281 309 340 275 279 125 193 181 184 196 172 192 217 248 185 29 27 318 346 99 150 14 32 357 338 112 127 338 166 238
204 200 205 208 209 215 233 251 274 300 318 327 310 277 240 237 221 233 2 356 290 334 66 351 281 185 128 80 325 167 83 63 59 27 29 21 340 16 103 31 59 322 19 263 145 302 54
203 201 199 202 201 209 222 240 262 290 308 340 318 300 269 215 134 52 10 259 281 17 344 357 299 228 163 181 242 206 79 32 4 38 25 343 335 356 320 201 227 55 328 28 2 19 342
201 200 196 195 194 199 208 224 244 277 314 342 307 284 245 119 95 27 233 258 323 60 12 9 348 317 325 157 219 62 57 28 14 7 21 35 64 306 0 6 60 0 27 33 86 79 35
200 200 194 192 189 190 199 209 221 261 315 312 268 279 175 81 73 231 223 257 309 90 303 306 295 321 24 33 40 76 71 79 348 33 26 331 59 311 272 305 40 10 94 98 110 318 179
202 198 192 189 188 182 190 199 199 217 346 310 258 254 67 94 224 261 293 298 337 335 204 306 316 8 16 42 67 105 106 40 63 55 31 321 351 351 339 18 6 19 5 35 101 84 274
210 198 191 185 186 181 183 187 186 191 188 266 290 289 33 156 258 281 308 264 211 331 322 20 2 30 17 33 49 360 116 87 85 95 315 46 359 126 209 254 293 343 327 317 104 117 210
224 198 191 184 183 180 177 181 179 176 177 253 240 255 292 203 242 231 281 303 202 164 347 329 16 325 315 6 310 236 125 124 118 144 113 85 346 10 328 321 300 271 284 5 17 67 86
247 198 189 182 177 176 174 179 171 167 152 264 295 5 332 294 300 195 248 298 304 154 205 47 290 268 80 68 69 53 61 40 42 38 63 46 308 359 311 283 336 21 48 52 46 38 26
229 212 186 177 175 176 174 172 170 166 187 237 267 292 171 284 266 13 214 257 296 216 39 38 209 47 63 62 72 75 87 84 81 87 39 13 15 355 278 333 324 59 12 40 58 40 37
212 214 179 175 171 173 173 173 175 179 199 345 310 286 296 277 276 203 240 237 268 303 129 53 38 94 107 95 91 52 7 117 141 96 115 11 337 282 264 328 67 43 32 45 70 46 31
189 230 180 171 169 171 174 176 177 184 191 253 314 322 346 303 323 298 236 195 227 71 72 76 37 16 7 34 62 95 326 333 202 143 138 98 24 324 50 332 143 40 26 23 57 42 25
195 208 194 171 170 172 173 172 173 177 169 227 280 267 278 300 21 335 302 36 128 121 65 98 42 350 33 36 190 233 203 180 167 134 129 131 147 130 319 265 344 342 15 340 322 81 7
188 190 223 176 173 175 173 170 170 169 170 212 287 297 292 305 14 9 26 326 345 119 114 110 102 50 51 16 270 228 234 75 60 128 188 197 253 213 262 249 124 12 31 306 349 269 357
176 184 207 186 174 173 170 168 168 166 169 179 279 254 306 324 9 26 18 34 346 9 82 167 62 355 60 70 253 261 97 5 18 39 96 106 82 342 343 32 21 1 55 76 182 25 30
181 183 188 207 178 171 166 167 166 166 172 178 270 206 182 258 335 1 42 16 42 19 349 356 94 82 54 21 356 14 19 40 112 244 47 80 141 158 109 177 92 67 104 81 70 50 354